Observer details:
130 Lumezzane.  Observers M. Casali, W. Marinello, M. Micheli, G. Pizzetti,
    A. Soffiantini.  Measurer W. Marinello.  0.40-m f/4.5 reflector + CCD.
160 Castelmartini.  Observers P. Camilleri, E. Guido, M. Jaeger, E. Prosperi,
    G. Sostero, W. Vollmann.  Measurer E. Prosperi.  0.35-m f/10
    Schmidt-Cassegrain + CCD.
213 Observatorio Montcabre.  Observer R. Naves.  Measurer M. Campas.  0.30-m
    f/10 Schmidt-Cassegrain + CCD.
232 Masquefa Observatory.  Observer E. Reina.  0.25-m f/3.3 Schmidt-Cassegrain
    + CCD.
235 CAST Observatory, Talmassons.  Observers R. Ligustri, S. Gumenuk.
    Measurer R. Ligustri.  0.35-m f/6 reflector + CCD.
372 Geisei.  Observer T. Seki.  0.60-m f/3.5 reflector.
473 Remanzacco.  Observers L. Donato, V. Gonano, E. Guido, V. Santini,
    G. Sostero.  0.45-m f/4.4 Newtonian reflector + CCD.
704 Lincoln Laboratory ETS, New Mexico.  Observers M. Bezpalko, D. Torres,
    R. Kracke, G. Spitz, M. Blythe.  Measurer J. Stuart.  1.0-m f/2.15
    reflector + CCD.
850 Cordell-Lorenz Observatory, Sewanee.  Observers D. T. Durig, T. D. Moore.
    0.30-m f/2.8 Schmidt-Cassegrain + CCD, 0.35-m f/6 Schmidt-Cassegrain + CCD.
900 Moriyama.  Observer Y. Ikari.  0.26-m f/7.0 reflector + CCD.
939 Observatorio Rodeno.  Observer J. Castellano.  0.20-m f/10
    Schmidt-Cassegrain + CCD.
A58 Observatoire de Chalandray-Canotiers.  Observer J. de Vanssay.
    0.28-m f/3.7 reflector + CCD
A71 Stixendorf.  Observers P. Camilleri, E. Guido, M. Jaeger, E. Prosperi,
    G. Sostero, W. Vollmann.  Measurer W. Vollmann.  0.20-m f/2.8 reflector
    + CCD.
A79 Zvezdno Obshtestvo Observatory, Plana.  Observer F. Fratev.  0.35-m f/3.4
    reflector + CCD.
B49 Paus Observatory, Sabadell.  Observer J. Camarasa.  0.25-m f/4 Newtonian
    reflector + CCD.
D29 Purple Mountain Observatory, XuYi Station.  Observers H. B. Zhao,
    J. S. Yao, G. T. Zhaori, M. Wang, R. Q. Hong, L. F. Hu.  Measurers
    H. B. Zhao, H. Lu, G. T. Zhaori, Y. Xia.  1.04-m f/1.8 Schmidt + CCD.
E85 Farm Cove.  Observer J. McCormick.  0.35-m f/10 Schmidt-Cassegrain + CCD.
H10 Tzec Maun Observatory, Mayhill.  Observer S. Plaksa.  0.18-m f/2.8
    reflector + CCD.
J28 Jaen.  Observer J. J. Martin.  0.20-m f/10 Schmidt-Cassegrain + CCD.
J38 Observatorio La Vara, Valdes.  Observer F. Garcia.  0.25-m f/8.1 reflector
    + CCD.
J51 Observatorio Atlante, Tenerife.  Observer J. A. Henriquez.  0.2-m f/9
    Cassegrain + CCD.
J53 Posadas.  Observer R. Benavides.  0.28-m f/6.3 Schmidt-Cassegrain + CCD.
J75 OAM Observatory, La Sagra.  Observers S. Sanchez, J. Nomen, R. Stoss,
    J. Rodriguez.  0.35-m f/6 Schmidt-Cassegrain + CCD.

Orbital elements:
    P/2009 T2 (La Sagra)
T 2010 Jan. 12.8222 TT                                  MPC
q   1.754697             (2000.0)            P               Q
n   0.0471953      Peri.  215.4601      +0.3583614      -0.8916186
a   7.583510       Node   215.9868      +0.9277268      +0.3732579
e   0.768617       Incl.   28.0988      +0.1044035      -0.2563099
P  20.9
From 324 observations 2009 Sept. 18-Oct. 29.

Brian G. Marsden             (C) Copyright 2009 MPC           M.P.E.C. 2009-U133

Read MPEC 2009-U132 Read MPEC 2009-U134

